COSMOS 2251 DEB, 35888

Orbit data source: Space-Track

COSMOS 2251 DEB, 35888 is space debris in LEO originally from a launch on Wed, 16 Jun 1993 UTC launched from the Plesetsk Missile And Space Complex (PKMTR). The debris from Iridium 33, an American commercial communications satellite, has been tracked extensively since its accidental collision with the defunct Russian satellite Cosmos 2251 in 2009. This event, occurring at high speed in low Earth orbit (LEO), generated thousands of pieces of space debris, significantly increasing the risk of further collisions. The Iridium 33 debris cloud has impacted space traffic management and orbital debris mitigation strategies, making it a subject of ongoing study in space situational awareness.

Loading next visibility...
Identifier
35888, 1993-036AUB
Orbit
LEO
Country
Flag of CISCIS
Related business
Manufacturer
Unknown
Mission
Spacecraft
Bus & Motor
Unknown
Mass
Unknown
Launch date (UTC)
1993-06-16 (33 years ago)
Launch vehicle
Unknown
Launch site
Plesetsk Missile And Space Complex (PKMTR)
Object type
Payload
Rocket body
Debris
Shape & HBR
Unknown shape, 0.1 m
Radar Cross Section
Small (<0.1 m²)

Expand to show TLE details & history
Last TLE update: 20 hours ago

TLE from 20 hours ago
0 COSMOS 2251 DEB
1 35888U 93036AUB 26207.94914885  .00001176  00000-0  25200-3 0  9995
2 35888  74.0325 285.7658 0049991 358.4044   1.6953 14.59102864895721
Epoch: 2026-07-26T22:46Z
TLE epoch observation values (Epoch: 2026-07-26T22:46:46.460Z)
Latitude
-0.00002°
Longitude
-0.56753°
Altitude
663.356 km
Speed
7.544 km/s
True Right ascension
19h 03m 03s
True Declination
0° 00' 00"
Sunlit
Object was in full shadow at epoch
Visualization orbit readout
Latitude
Unknown
Longitude
Unknown
Altitude
Unknown
Speed
Unknown
Apparent Right ascension
Unknown
Apparent Declination
Unknown
Sunlit
N/A
Visualization observer readout
Local Sidereal Time
08:33:26
Azimuth
Unknown
Elevation
Unknown
Doppler factor
Unknown
Orbital elements
Apogee altitude
729.024 km
Perigee altitude
658.318 km
Semi-major axis
7,071.808 km
Eccentricity
0.005
Inclination
74.0325°
RAAN
285.7658°
Arg. of periapsis
358.4044°
True anomaly
1.71235°
Mean anomaly
1.6953°
Eccentric anomaly
1.70382°
Mean motion
3.64962 °/min
Orbital period
98.64 mins
BSTAR
0.000252
Loading maneuver chart data...
Computing Atmospheric mass density...

Documentation

Showing up to 5 results
|